Eastover, SC

6:43 AM EDT on May 24, 2017 (GMT -0400)
McEntire Angs

Weather History for KMMT - November, 2013

Change the Weather History Date:

Monday, November 25, 2013

  Actual Average Record
Temperature  
Mean Temperature 34 °F -  
Max Temperature 47 °F 63 °F 77 °F (2016)
Min Temperature 20 °F 41 °F 20 °F (2013)
Degree Days  
Heating Degree Days 32    
Moisture  
Dew Point 13 °F    
Average Humidity 38    
Maximum Humidity 67    
Minimum Humidity 21    
Precipitation  
Precipitation 0.00 in - - ()
Sea Level Pressure  
Sea Level Pressure 30.47 in    
Wind  
Wind Speed 5 mph (ENE)    
Max Wind Speed 12 mph    
Max Gust Speed -    
Visibility 10 miles    
Events      
Averages and records for this station are not official NWS values.
T = Trace of Precipitation, MM = Missing Value Source: NWS Daily Summary

Daily Weather History Graph

Daily Weather History Graph

Search for Another Location

Airport or City:

Trip Planner

Search our weather history database for the weather conditions in past years. The results will help you decide how hot, cold, wet, or windy it might be!

Date:

Astronomy

Nov. 25, 2013 Rise Set
Actual Time 7:05 AM EST 5:15 PM EST
Civil Twilight 6:38 AM EST 5:42 PM EST
Nautical Twilight 6:07 AM EST 6:12 PM EST
Astronomical Twilight 5:37 AM EST 6:42 PM EST
Moon No Moon Rise 12:32 PM EST (11/25)
Length of Visible Light 11h 04m
Length of Day
10h 10m
Waning Gibbous, 51% of the Moon is Illuminated
Nov 25
Waning Gibbous
Nov 25
Last Quarter
Dec 2
New
Dec 9
First Quarter
Dec 17
Full

Hourly Weather History & Observations

Time (EST) Temp. Windchill Dew Point Humidity Pressure Visibility Wind Dir Wind Speed Gust Speed Precip Events Conditions
12:58 AM 27.3 °F 23.4 °F 10.4 °F 49% 30.55 in 10.0 mi NE 3.5 mph - N/A   Clear
1:58 AM 27.1 °F 23.2 °F 10.2 °F 49% 30.54 in 10.0 mi NE 3.5 mph - N/A   Clear
2:58 AM 27.0 °F 21.6 °F 9.5 °F 48% 30.54 in 10.0 mi NE 4.6 mph - N/A   Clear
3:58 AM 26.6 °F 21.2 °F 9.0 °F 47% 30.55 in 10.0 mi NNE 4.6 mph - N/A   Clear
4:58 AM 26.1 °F 19.4 °F 9.1 °F 49% 30.54 in 10.0 mi NNE 5.8 mph - N/A   Clear
5:58 AM 20.8 °F - 11.3 °F 67% 30.56 in 10.0 mi North 1.2 mph - N/A   Clear
6:58 AM 23.9 °F - 10.6 °F 57% 30.57 in 10.0 mi ENE 2.3 mph - N/A   Scattered Clouds
7:58 AM 25.7 °F 21.5 °F 12.6 °F 58% 30.58 in 10.0 mi ENE 3.5 mph - N/A   Mostly Cloudy
8:58 AM 31.1 °F 22.4 °F 12.4 °F 46% 30.58 in 10.0 mi ENE 10.4 mph - N/A   Mostly Cloudy
9:58 AM 35.4 °F 27.3 °F 8.1 °F 32% 30.57 in 10.0 mi East 11.5 mph - N/A   Scattered Clouds
10:58 AM 40.1 °F 34.1 °F 6.3 °F 25% 30.55 in 10.0 mi East 9.2 mph - N/A   Scattered Clouds
11:58 AM 43.7 °F 38.6 °F 5.4 °F 21% 30.51 in 10.0 mi East 9.2 mph - N/A   Partly Cloudy
12:58 PM 45.5 °F 39.9 °F 8.1 °F 22% 30.48 in 10.0 mi ENE 11.5 mph - N/A   Partly Cloudy
1:58 PM 47.3 °F - 12.9 °F 25% 30.44 in 10.0 mi East 8.1 mph - N/A   Partly Cloudy
2:58 PM 47.7 °F - 14.0 °F 26% 30.43 in 10.0 mi Variable 5.8 mph - N/A   Partly Cloudy
3:58 PM 47.5 °F - 16.3 °F 29% 30.43 in 10.0 mi NE 5.8 mph - N/A   Scattered Clouds
4:58 PM 46.2 °F 43.3 °F 18.5 °F 33% 30.43 in 10.0 mi ENE 5.8 mph - N/A   Mostly Cloudy
5:58 PM 45.3 °F 42.3 °F 19.6 °F 36% 30.42 in 10.0 mi ENE 5.8 mph - N/A   Overcast
6:58 PM 44.6 °F 41.4 °F 19.8 °F 37% 30.44 in 10.0 mi ENE 5.8 mph - N/A   Overcast
7:08 PM 44.6 °F 43.1 °F 19.4 °F 37% 30.42 in 10.0 mi ENE 3.5 mph - N/A   Overcast
7:58 PM 43.9 °F 39.3 °F 18.7 °F 37% 30.42 in 10.0 mi ENE 8.1 mph - N/A   Overcast
8:58 PM 43.3 °F 39.9 °F 15.4 °F 32% 30.39 in 10.0 mi East 5.8 mph - N/A   Overcast
9:58 PM 42.8 °F 40.1 °F 13.6 °F 31% 30.38 in 10.0 mi ENE 4.6 mph - N/A   Overcast
10:58 PM 42.3 °F 37.3 °F 14.2 °F 32% 30.35 in 10.0 mi NE 8.1 mph - N/A   Overcast
11:38 PM 41.0 °F 38.0 °F 14.0 °F 33% 30.32 in 10.0 mi NE 4.6 mph - N/A   Overcast
11:58 PM 41.4 °F 37.6 °F 13.1 °F 32% 30.32 in 10.0 mi NE 5.8 mph - N/A   Overcast